Station FRVM3 - 8447386 - Fall River, MA Image indicating link to RSS feed of recent meteorological observations for station FRVM3


Conditions at FRVM3 as of
(4:18 pm EDT)
2018 GMT on 07/14/2024:
     

Click on the graph icon in the table below to see a time series plot of the last five days of that observation.

5-day plot - Atmospheric Pressure Atmospheric Pressure (PRES):29.96 in
5-day plot - Water Temperature Water Temperature (WTMP): 77.2 °F
NOS Water Level Observation Network Water Level
Previous observations
TIME
(EDT)
5-day plot - Wind Direction
WDIR
 
5-day plot - Wind Speed
WSPD
kts
5-day plot - Wind Gust
GST
kts
5-day plot - Wave Height
WVHT
ft
5-day plot - Dominant Wave Period
DPD
sec
5-day plot - Average Wave Period
APD
sec
5-day plot - Mean Wave Direction
MWD
 
5-day plot - Atmospheric Pressure
PRES
in
5-day plot - Pressure Tendency
PTDY
in
5-day plot - Air Temperature
ATMP
°F
5-day plot - Water Temperature
WTMP
°F
5-day plot - Dew Point
DEWP
°F
5-day plot - Salinity
SAL
psu
5-day plot - Visibility
VIS
nmi
5-day plot - Tide (above MLLW)
TIDE
ft
2024-07-14 04:12 pm-------29.96-- 77.2----
2024-07-14 04:06 pm-------29.96-- 77.2----
2024-07-14 04:00 pm-------29.96-- 77.2----
2024-07-14 03:54 pm-------29.96-- 77.0----
2024-07-14 03:48 pm-------29.96- 87.8 77.0----
2024-07-14 03:42 pm-------29.96- 87.8 76.8----
2024-07-14 03:36 pm-------29.97- 87.8 76.8----
2024-07-14 03:30 pm-------29.97-- 77.0----
2024-07-14 03:24 pm-------29.97-- 77.2----
2024-07-14 03:18 pm-------29.98- 87.4 77.2----
2024-07-14 03:12 pm-------29.97- 87.3 77.2----
2024-07-14 03:06 pm-------29.97- 86.5 77.0----
2024-07-14 03:00 pm-------29.97-0.05 86.4 76.8----
2024-07-14 02:54 pm-------29.97- 86.4 76.8----
2024-07-14 02:48 pm-------29.98- 86.5 76.8----
2024-07-14 02:42 pm-------29.98- 86.4 76.8----
2024-07-14 02:36 pm-------29.98- 86.4 76.6----
2024-07-14 02:30 pm-------29.98-- 76.8----
2024-07-14 02:24 pm-------29.98-- 76.8----
2024-07-14 02:18 pm-------29.98-------
2024-07-14 02:12 pm-------29.98-------
2024-07-14 02:06 pm-------29.98-------
2024-07-14 02:00 pm-------29.99-0.04 86.7 76.8----
2024-07-14 01:42 pm-------29.99-- 76.8----
2024-07-14 01:36 pm-------29.99-- 76.8----
2024-07-14 01:30 pm-------29.99-- 76.8----
2024-07-14 01:24 pm-------30.00-- 76.8----
2024-07-14 01:18 pm-------30.00- 85.3 77.0----
2024-07-14 01:12 pm-------30.00- 85.5 76.8----
2024-07-14 01:06 pm-------30.00- 83.8 76.8----
2024-07-14 01:00 pm--------- 84.9 76.8----
2024-07-14 12:54 pm--------- 84.4 76.8----
2024-07-14 12:48 pm-------30.01- 83.5 76.6----
2024-07-14 12:42 pm-------30.01- 84.6 76.8----
2024-07-14 12:36 pm-------30.01- 83.3 76.6----
2024-07-14 12:30 pm-------30.02- 84.0 76.8----
2024-07-14 12:24 pm-------30.02- 84.0 76.8----
2024-07-14 12:18 pm-------30.02- 83.7 76.8----
2024-07-14 12:12 pm-------30.02- 83.3 76.8----
2024-07-14 12:06 pm-------30.02- 83.1 76.8----
2024-07-14 12:00 pm-------30.02-0.02 83.1 77.0----
2024-07-14 11:54 am-------30.02- 83.1 77.0----
2024-07-14 11:48 am-------30.02-- 77.0----
2024-07-14 11:42 am-------30.03-- 77.0----
2024-07-14 11:36 am-------30.03-- 76.8----
2024-07-14 11:30 am-------30.03- 83.3 76.8----
2024-07-14 11:24 am-------30.03- 82.9 76.8----
2024-07-14 11:18 am-------30.03- 82.9 76.8----
2024-07-14 11:12 am-------30.03- 83.5 76.8----
2024-07-14 11:06 am-------30.03- 84.2 76.8----
2024-07-14 11:00 am-------30.03-0.01 84.4 76.8----
2024-07-14 10:54 am-------30.03- 84.0 76.8----
2024-07-14 10:48 am--------- 83.3 76.8----
2024-07-14 10:42 am--------- 84.9 76.8----
2024-07-14 10:36 am--------- 86.0 76.8----
2024-07-14 10:30 am-------30.03- 86.2 77.0----
2024-07-14 10:24 am-------30.03- 84.4 77.0----
2024-07-14 10:18 am-------30.03- 84.6 77.0----
2024-07-14 10:12 am-------30.03- 84.0 77.0----
2024-07-14 10:06 am-------30.03- 84.6 77.0----
2024-07-14 10:00 am-------30.03-0.01 83.3 77.0----
2024-07-14 09:54 am-------30.03- 82.6 77.0----
2024-07-14 09:48 am-------30.04- 81.7 77.0----
2024-07-14 09:42 am-------30.04- 81.1 77.0----
2024-07-14 09:36 am-------30.04- 80.2 77.0----
2024-07-14 09:30 am-------30.04- 79.9 77.0----
2024-07-14 09:24 am-------30.04- 79.3 77.0----
2024-07-14 09:18 am-------30.04-- 77.0----
2024-07-14 09:12 am-------30.04-- 77.0----
2024-07-14 09:06 am-------30.04-- 77.0----
2024-07-14 09:00 am-------30.05+0.00 76.6 77.0----
2024-07-14 08:54 am-------30.05- 76.6 77.0----
2024-07-14 08:48 am-------30.05- 76.3 77.0----
2024-07-14 08:42 am-------30.05- 75.9 77.0----
2024-07-14 08:36 am-------30.05- 75.7 77.0----
2024-07-14 08:30 am-------30.05- 75.6 77.0----
2024-07-14 08:24 am-------30.05- 75.4 77.0----
2024-07-14 08:18 am-------30.05- 75.2 77.0----
2024-07-14 08:12 am-------30.05- 74.8 77.0----
2024-07-14 08:06 am-------30.05- 74.7 77.0----
2024-07-14 08:00 am-------30.05+0.01 74.5 77.0----
2024-07-14 07:54 am-------30.05- 74.3 77.0----
2024-07-14 07:48 am-------30.05-- 77.0----
2024-07-14 07:42 am-------30.05-- 77.0----
2024-07-14 07:36 am-------30.04-- 77.0----
2024-07-14 07:30 am-------30.05- 73.8 77.0----
2024-07-14 07:24 am-------30.05- 73.8 77.0----
2024-07-14 07:18 am-------30.05- 73.8 77.0----
2024-07-14 07:12 am-------30.05- 73.8 77.0----
2024-07-14 07:06 am-------30.05- 73.9 77.0----
2024-07-14 07:00 am-------30.05+0.02- 77.0----
2024-07-14 06:54 am-------30.04-- 77.0----
2024-07-14 06:48 am-------30.04- 73.8 77.0----
2024-07-14 06:42 am-------30.04- 73.6 77.2----
2024-07-14 06:36 am-------30.04- 73.6 77.4----
2024-07-14 06:30 am-------30.04-- 77.4----
2024-07-14 06:24 am-------30.04-- 77.5----
2024-07-14 06:18 am-------30.04- 73.6 77.5----
2024-07-14 06:12 am-------30.04- 73.8 77.7----
2024-07-14 06:06 am-------30.04- 73.8 77.7----
2024-07-14 06:00 am-------30.04+0.01 73.8 77.5----
2024-07-14 05:54 am-------30.04- 73.8 77.5----
2024-07-14 05:48 am-------30.04- 73.8 77.5----
2024-07-14 05:42 am-------30.04- 73.8 77.5----
2024-07-14 05:36 am-------30.04- 73.8 77.5----
2024-07-14 05:30 am-------30.04- 73.8 77.5----
2024-07-14 05:24 am-------30.04- 73.6 77.5----
2024-07-14 05:18 am-------30.03- 73.8 77.5----
2024-07-14 05:12 am-------30.03- 73.8 77.4----
2024-07-14 05:06 am-------30.03- 73.8 77.4----
2024-07-14 05:00 am-------30.03-0.01- 77.4----
2024-07-14 04:54 am-------30.03-- 77.4----
2024-07-14 04:48 am-------30.03-- 77.4----
2024-07-14 04:42 am-------30.03-- 77.4----
2024-07-14 04:36 am-------30.03-- 77.4----
2024-07-14 04:30 am-------30.03- 73.6 77.4----
2024-07-14 04:24 am-------30.03- 73.6 77.4----
2024-07-14 04:18 am-------30.03-- 77.4----
2024-07-14 04:12 am-------30.03-- 77.4----
2024-07-14 04:06 am-------30.03-- 77.4----
2024-07-14 04:00 am-------30.03-0.03 73.2 77.5----
2024-07-14 03:54 am-------30.03- 73.2 77.5----
2024-07-14 03:48 am-------30.03-- 77.5----
2024-07-14 03:42 am-------30.03-- 77.5----
2024-07-14 03:36 am-------30.03-- 77.5----
2024-07-14 03:30 am-------30.03- 73.4 77.5----
2024-07-14 03:24 am-------30.03- 73.6 77.5----
2024-07-14 03:18 am-------30.03- 73.6 77.5----
2024-07-14 03:12 am-------30.03- 73.6 77.4----
2024-07-14 03:06 am-------30.03- 73.8 77.4----
2024-07-14 03:00 am-------30.03-0.04 73.8 77.4----
2024-07-14 02:54 am-------30.03- 73.8 77.4----
2024-07-14 02:48 am-------30.03- 73.8 77.4----
2024-07-14 02:42 am-------30.03- 73.8 77.4----
2024-07-14 02:36 am-------30.04- 73.9 77.4----
2024-07-14 02:30 am-------30.04- 73.8 77.4----
2024-07-14 02:24 am-------30.04- 73.6 77.4----
2024-07-14 02:18 am-------30.04-- 77.4----
2024-07-14 02:12 am-------30.04-- 77.5----
2024-07-14 02:06 am-------30.04-- 77.5----
2024-07-14 02:00 am-------30.05-0.02 73.6 77.5----
2024-07-14 01:54 am-------30.05- 73.6 77.5----
2024-07-14 01:48 am-------30.05- 73.6 77.5----
2024-07-14 01:42 am-------30.05- 73.8 77.5----
2024-07-14 01:36 am-------30.05- 73.6 77.5----
2024-07-14 01:30 am-------30.05- 73.6 77.5----
2024-07-14 01:24 am-------30.05- 73.6 77.5----
2024-07-14 01:18 am-------30.05-- 77.5----
2024-07-14 01:12 am-------30.05-- 77.5----
2024-07-14 01:06 am-------30.06-- 77.5----
2024-07-14 01:00 am-------30.06-0.02- 77.4----
2024-07-14 12:54 am-------30.06-- 77.4----
2024-07-14 12:48 am-------30.06-- 77.4----
2024-07-14 12:42 am-------30.06-- 77.4----
2024-07-14 12:36 am-------30.06-- 77.4----
2024-07-14 12:30 am-------30.06- 74.3 77.5----
2024-07-14 12:24 am-------30.06- 74.3 77.5----
2024-07-14 12:18 am-------30.06- 74.3 77.5----
2024-07-14 12:12 am-------30.06- 74.3 77.5----
2024-07-14 12:06 am-------30.07- 74.5 77.7----
2024-07-14 12:00 am-------30.07+0.00 74.5 77.7----
2024-07-13 11:54 pm-------30.07- 74.5 77.7----
2024-07-13 11:48 pm-------30.07- 74.5 77.7----
2024-07-13 11:42 pm-------30.07- 74.7 77.7----
2024-07-13 11:36 pm-------30.07- 74.5 77.7----
2024-07-13 11:30 pm-------30.07- 74.5 77.7----
2024-07-13 11:24 pm-------30.08- 74.5 77.7----
2024-07-13 11:18 pm-------30.07- 74.3 77.7----
2024-07-13 11:12 pm-------30.07- 74.3 77.7----
2024-07-13 11:06 pm-------30.07- 74.3 77.7----
2024-07-13 11:00 pm-------30.07-0.01 74.3 77.7----
2024-07-13 10:54 pm-------30.07- 74.3 77.7----
2024-07-13 10:48 pm-------30.07- 74.5 77.7----
2024-07-13 10:42 pm-------30.07- 74.5 77.7----
2024-07-13 10:36 pm-------30.08- 74.5 77.7----
2024-07-13 10:30 pm-------30.08- 74.5 77.7----
2024-07-13 10:24 pm-------30.08- 74.7 77.7----
2024-07-13 10:18 pm-------30.08- 74.5-----
2024-07-13 10:12 pm-------30.08- 74.7-----
2024-07-13 10:06 pm-------30.08- 74.7-----
2024-07-13 10:00 pm-------30.08+0.00 74.7 77.7----
2024-07-13 09:54 pm-------30.08- 74.7 77.7----
2024-07-13 09:48 pm-------30.08-- 77.7----
2024-07-13 09:42 pm-------30.08-- 77.7----
2024-07-13 09:36 pm-------30.08-- 77.7----
2024-07-13 09:30 pm-------30.08- 74.8 77.7----
2024-07-13 09:24 pm-------30.07- 74.7 77.7----
2024-07-13 09:18 pm-------30.07-- 77.7----
2024-07-13 09:12 pm-------30.08-- 77.7----
2024-07-13 09:06 pm-------30.08-- 77.7----
2024-07-13 09:00 pm-------30.08+0.00 74.7 77.7----
2024-07-13 08:54 pm-------30.08- 74.5 77.7----
2024-07-13 08:48 pm---------- 77.7----
2024-07-13 08:42 pm---------- 77.7----
2024-07-13 08:36 pm---------- 77.7----
2024-07-13 08:30 pm-------30.08- 74.5 77.7----
2024-07-13 08:24 pm-------30.08- 74.7 77.7----
2024-07-13 08:18 pm-------30.08- 74.7 77.7----
2024-07-13 08:12 pm-------30.08- 74.8 77.7----
2024-07-13 08:06 pm-------30.08- 74.8 77.7----
2024-07-13 08:00 pm-------30.08+0.00 75.0 77.7----
2024-07-13 07:54 pm-------30.08- 75.2 77.7----
2024-07-13 07:48 pm-------30.08- 75.6 77.7----
2024-07-13 07:42 pm-------30.08- 75.4 77.9----
2024-07-13 07:36 pm-------30.08- 75.4 77.9----
2024-07-13 07:30 pm-------30.08- 75.4 77.9----
2024-07-13 07:24 pm-------30.08- 75.6 77.9----
2024-07-13 07:18 pm-------30.08- 75.7 77.9----
2024-07-13 07:00 pm-------30.08-0.03 77.2 77.9----
2024-07-13 06:54 pm-------30.08- 77.4 77.9----
2024-07-13 06:48 pm-------30.08- 78.1 77.9----
2024-07-13 06:42 pm-------30.08- 78.8 77.7----
2024-07-13 06:36 pm-------30.08- 78.8 77.7----
2024-07-13 06:30 pm-------30.08-- 77.7----
2024-07-13 06:24 pm-------30.08-- 77.7----
2024-07-13 06:18 pm-------30.08- 78.1 77.7----
2024-07-13 06:12 pm-------30.08- 78.6 77.7----
2024-07-13 06:06 pm-------30.08- 78.6 77.7----
2024-07-13 06:00 pm-------30.08-0.04 79.2 77.7----
2024-07-13 05:54 pm-------30.09- 78.4 77.7----
2024-07-13 05:48 pm-------30.09- 78.3 77.9----
2024-07-13 05:42 pm-------30.09- 78.1 77.7----
2024-07-13 05:36 pm-------30.08- 78.1 77.7----
2024-07-13 05:30 pm-------30.08-- 77.7----
2024-07-13 05:24 pm-------30.08-- 77.7----
2024-07-13 05:18 pm-------30.08- 77.4 77.5----
2024-07-13 05:12 pm-------30.08- 77.0 77.5----
2024-07-13 05:06 pm-------30.08- 77.0 77.5----
2024-07-13 05:00 pm-------30.09-0.05 77.0 77.5----
2024-07-13 04:54 pm-------30.09- 77.2 77.5----
2024-07-13 04:48 pm-------30.09- 77.4 77.5----
2024-07-13 04:42 pm-------30.09- 77.4 77.5----
2024-07-13 04:36 pm-------30.09- 77.4 77.5----
2024-07-13 04:30 pm-------30.10-- 77.5----
2024-07-13 04:24 pm-------30.10-- 77.5----
2024-07-13 04:18 pm-------30.10- 78.1 77.5----
2024-07-13 04:12 pm-------30.10- 77.9 77.5----
2024-07-13 04:06 pm-------30.10- 77.5 77.5----
2024-07-13 04:00 pm-------30.11-0.06- 77.5----
2024-07-13 03:54 pm-------30.11-- 77.5----